GEFSSGP_prec_meanprecacc_090.txt.gz
Total_Precipitation_Accumulation
0.00 0.00 0.00 0.00 0.00 0.00 0.00 0.01 0.02 0.05 0.10 0.08 0.09 0.12 0.16 0.21 0.27 0.59 0.37 0.16 0.08 0.03 0.01 0.01 0.02 0.03 0.05 0.05 0.06 0.07 0.06 0.06 0.08 0.09 0.09 0.10 0.09 0.09 0.08 0.09 0.11 0.16 0.19 0.18 0.16 0.14 0.15 0.12 0.08
0.00 0.00 0.00 0.00 0.00 0.00 0.01 0.02 0.03 0.04 0.09 0.10 0.09 0.11 0.14 0.16 0.12 0.07 0.07 0.07 0.08 0.03 0.01 0.01 0.02 0.03 0.04 0.04 0.06 0.08 0.08 0.07 0.07 0.08 0.08 0.09 0.08 0.08 0.08 0.09 0.12 0.17 0.22 0.22 0.20 0.17 0.15 0.12 0.07
0.00 0.00 0.00 0.00 0.00 0.00 0.02 0.03 0.03 0.03 0.05 0.07 0.13 0.21 0.22 0.16 0.12 0.08 0.07 0.06 0.08 0.03 0.00 0.01 0.02 0.03 0.04 0.04 0.05 0.08 0.09 0.08 0.08 0.08 0.08 0.09 0.09 0.08 0.09 0.10 0.11 0.13 0.16 0.16 0.12 0.10 0.10 0.10 0.06
0.00 0.00 0.00 0.00 0.00 0.00 0.01 0.03 0.04 0.03 0.04 0.05 0.14 0.28 0.26 0.20 0.16 0.12 0.09 0.08 0.06 0.03 0.01 0.01 0.02 0.04 0.05 0.06 0.07 0.08 0.08 0.09 0.09 0.10 0.12 0.12 0.11 0.10 0.12 0.15 0.15 0.14 0.14 0.12 0.10 0.09 0.08 0.09 0.05
0.00 0.00 0.00 0.00 0.00 0.00 0.01 0.02 0.05 0.04 0.05 0.07 0.12 0.27 0.33 0.31 0.32 0.28 0.13 0.10 0.09 0.06 0.03 0.01 0.02 0.05 0.08 0.09 0.11 0.13 0.13 0.13 0.14 0.16 0.17 0.16 0.14 0.14 0.15 0.16 0.17 0.15 0.15 0.13 0.11 0.12 0.11 0.07 0.03
0.00 0.00 0.00 0.00 0.00 0.00 0.01 0.02 0.05 0.06 0.06 0.06 0.11 0.26 0.44 0.39 0.31 0.38 0.26 0.16 0.10 0.08 0.04 0.02 0.02 0.05 0.11 0.14 0.17 0.19 0.16 0.14 0.15 0.17 0.20 0.16 0.13 0.11 0.11 0.12 0.13 0.14 0.17 0.16 0.11 0.07 0.05 0.03 0.02
0.00 0.00 0.00 0.00 0.01 0.01 0.01 0.02 0.04 0.05 0.06 0.07 0.12 0.30 0.51 0.47 0.40 0.44 0.36 0.17 0.12 0.10 0.06 0.04 0.03 0.05 0.13 0.20 0.18 0.16 0.14 0.14 0.16 0.19 0.21 0.18 0.13 0.09 0.08 0.11 0.12 0.13 0.13 0.09 0.04 0.02 0.01 0.01 0.01
0.00 0.00 0.00 0.00 0.01 0.01 0.02 0.03 0.05 0.08 0.10 0.08 0.11 0.29 0.49 0.53 0.48 0.43 0.36 0.24 0.19 0.18 0.10 0.06 0.07 0.09 0.13 0.14 0.14 0.14 0.14 0.14 0.15 0.17 0.16 0.13 0.09 0.08 0.08 0.08 0.08 0.08 0.09 0.09 0.05 0.02 0.01 0.01 0.01
0.00 0.00 0.00 0.00 0.01 0.01 0.03 0.05 0.05 0.05 0.06 0.08 0.10 0.21 0.35 0.41 0.45 0.43 0.38 0.28 0.24 0.18 0.14 0.10 0.09 0.11 0.11 0.09 0.06 0.08 0.09 0.10 0.09 0.07 0.08 0.07 0.08 0.13 0.13 0.08 0.07 0.10 0.11 0.09 0.04 0.03 0.02 0.02 0.02
0.00 0.00 0.00 0.00 0.01 0.01 0.03 0.04 0.05 0.05 0.04 0.06 0.14 0.19 0.22 0.26 0.39 0.39 0.37 0.31 0.24 0.17 0.13 0.12 0.10 0.08 0.10 0.09 0.09 0.09 0.06 0.06 0.04 0.06 0.04 0.07 0.23 0.32 0.23 0.21 0.15 0.13 0.09 0.05 0.04 0.03 0.03 0.02 0.03
0.00 0.00 0.00 0.00 0.00 0.01 0.01 0.02 0.03 0.05 0.04 0.04 0.15 0.35 0.33 0.27 0.39 0.49 0.40 0.39 0.31 0.24 0.15 0.15 0.13 0.11 0.20 0.22 0.16 0.18 0.13 0.13 0.08 0.15 0.13 0.21 0.32 0.27 0.24 0.25 0.16 0.11 0.08 0.07 0.08 0.06 0.05 0.05 0.07
0.00 0.00 0.00 0.00 0.00 0.00 0.01 0.01 0.01 0.02 0.03 0.04 0.10 0.30 0.45 0.39 0.41 0.44 0.47 0.43 0.38 0.37 0.32 0.26 0.20 0.17 0.22 0.28 0.21 0.21 0.17 0.16 0.16 0.26 0.17 0.26 0.36 0.41 0.45 0.52 0.36 0.26 0.22 0.21 0.17 0.15 0.11 0.12 0.13
0.00 0.00 0.00 0.00 0.00 0.00 0.00 0.00 0.00 0.01 0.02 0.03 0.07 0.16 0.32 0.33 0.39 0.44 0.55 0.58 0.53 0.51 0.53 0.49 0.35 0.32 0.31 0.36 0.33 0.30 0.26 0.23 0.27 0.39 0.31 0.32 0.33 0.46 0.64 0.66 0.71 0.48 0.45 0.40 0.36 0.31 0.31 0.26 0.21
0.00 0.00 0.00 0.00 0.00 0.00 0.00 0.00 0.00 0.00 0.01 0.03 0.05 0.11 0.20 0.26 0.39 0.54 0.60 0.63 0.67 0.81 0.78 0.71 0.62 0.54 0.46 0.39 0.39 0.34 0.30 0.34 0.35 0.44 0.43 0.41 0.46 0.64 0.86 0.90 0.89 0.69 0.66 0.69 0.69 0.64 0.50 0.41 0.40
0.00 0.00 0.00 0.00 0.00 0.00 0.00 0.00 0.00 0.00 0.00 0.01 0.04 0.08 0.16 0.28 0.35 0.51 0.58 0.62 0.72 0.84 1.01 1.05 0.95 0.77 0.64 0.53 0.51 0.58 0.51 0.52 0.54 0.67 0.69 0.63 0.70 0.92 0.92 1.11 1.08 0.91 0.86 0.84 0.76 0.79 0.77 0.66 0.59
0.00 0.00 0.00 0.01 0.00 0.00 0.00 0.00 0.00 0.00 0.00 0.01 0.05 0.09 0.11 0.21 0.31 0.38 0.47 0.58 0.91 0.99 1.05 1.10 0.95 0.77 0.74 0.75 0.77 0.80 0.88 0.99 0.98 1.01 1.18 1.21 1.16 1.24 1.20 1.18 1.19 1.10 1.09 1.22 1.20 1.05 1.00 0.96 0.84
0.00 0.00 0.00 0.01 0.00 0.00 0.00 0.01 0.01 0.00 0.00 0.02 0.03 0.07 0.09 0.14 0.26 0.35 0.50 0.63 0.79 0.90 1.07 1.13 1.02 0.88 0.84 0.94 1.15 1.18 1.19 1.42 1.56 1.49 1.67 1.72 1.62 1.61 1.64 1.63 1.64 1.52 1.54 1.46 1.32 1.30 1.18 1.18 1.06
0.00 0.00 0.01 0.01 0.00 0.00 0.00 0.01 0.02 0.02 0.01 0.02 0.03 0.06 0.10 0.15 0.27 0.46 0.56 0.70 0.87 0.97 1.06 1.16 1.19 1.21 1.20 1.25 1.41 1.60 1.66 1.75 2.00 2.05 2.08 2.18 2.25 2.27 2.27 2.17 2.08 1.98 1.84 1.69 1.56 1.47 1.28 1.15 1.02
0.00 0.00 0.00 0.01 0.00 0.00 0.01 0.03 0.04 0.04 0.04 0.05 0.08 0.12 0.18 0.26 0.37 0.57 0.69 0.92 1.12 1.24 1.37 1.38 1.44 1.56 1.69 1.88 1.88 1.95 2.12 2.38 2.63 2.79 2.84 2.86 2.79 2.74 2.57 2.43 2.33 2.14 1.95 1.77 1.61 1.41 1.25 1.07 0.93
0.00 0.00 0.00 0.01 0.01 0.01 0.02 0.06 0.08 0.10 0.10 0.13 0.20 0.20 0.21 0.30 0.42 0.66 0.85 1.17 1.41 1.53 1.62 1.70 1.77 2.05 2.42 2.75 3.09 3.37 3.47 3.42 3.54 3.62 3.64 3.51 3.34 3.17 2.93 2.82 2.62 2.31 2.09 1.85 1.61 1.40 1.28 1.11 0.96
0.00 0.00 0.01 0.01 0.02 0.03 0.05 0.14 0.17 0.17 0.20 0.23 0.26 0.27 0.32 0.43 0.57 0.71 0.92 1.23 1.45 1.59 1.76 1.88 2.12 2.73 3.45 3.71 3.94 4.40 4.62 4.38 4.17 4.01 3.91 3.83 3.76 3.65 3.36 3.19 2.90 2.57 2.22 1.91 1.63 1.39 1.27 1.18 1.05
0.00 0.00 0.00 0.01 0.02 0.05 0.06 0.17 0.27 0.27 0.29 0.26 0.29 0.33 0.40 0.51 0.66 0.79 0.94 1.21 1.52 1.82 1.90 2.06 2.55 3.27 3.89 4.28 4.73 5.18 5.31 5.30 5.20 4.75 4.24 3.80 3.47 3.23 3.03 2.81 2.53 2.23 1.93 1.69 1.45 1.20 1.07 1.08 0.99
0.00 0.00 0.00 0.01 0.01 0.04 0.06 0.18 0.39 0.45 0.47 0.45 0.43 0.42 0.41 0.47 0.66 0.81 0.94 1.15 1.32 1.59 1.96 2.21 2.74 3.40 4.05 4.69 5.26 5.58 5.76 5.66 5.26 4.51 3.75 3.31 3.04 2.74 2.48 2.23 1.95 1.69 1.48 1.30 1.16 1.02 0.90 0.84 0.77
0.00 0.00 0.00 0.01 0.02 0.06 0.06 0.15 0.46 0.72 0.79 0.72 0.62 0.63 0.58 0.47 0.53 0.68 0.87 0.97 1.23 1.49 1.78 2.18 2.48 3.09 3.73 4.27 4.73 4.84 4.95 4.85 4.41 3.94 3.42 3.05 2.64 2.15 1.77 1.54 1.32 1.13 0.98 0.88 0.80 0.73 0.65 0.59 0.52
0.00 0.01 0.03 0.05 0.06 0.10 0.08 0.20 0.56 0.88 0.87 0.72 0.64 0.64 0.62 0.48 0.48 0.70 0.95 0.89 1.10 1.43 1.77 2.12 2.46 2.86 3.33 3.80 4.21 4.41 4.49 4.27 3.80 3.36 2.95 2.49 2.07 1.69 1.36 1.12 0.97 0.84 0.74 0.64 0.56 0.49 0.43 0.37 0.32
0.00 0.01 0.06 0.09 0.10 0.14 0.18 0.39 0.67 0.83 0.79 0.65 0.60 0.55 0.52 0.49 0.52 0.65 0.82 0.90 1.12 1.33 1.62 1.96 2.27 2.57 2.75 2.93 3.20 3.34 3.43 3.28 2.96 2.47 2.03 1.74 1.51 1.28 1.08 0.92 0.78 0.62 0.47 0.40 0.35 0.31 0.26 0.22 0.18
0.01 0.01 0.02 0.03 0.05 0.16 0.39 0.57 0.75 0.77 0.67 0.64 0.59 0.53 0.53 0.54 0.55 0.63 0.74 0.85 1.07 1.35 1.61 1.86 1.99 2.13 2.27 2.34 2.36 2.35 2.38 2.25 2.02 1.78 1.51 1.27 1.04 0.84 0.70 0.60 0.51 0.41 0.33 0.28 0.24 0.21 0.18 0.15 0.13
0.01 0.02 0.03 0.04 0.09 0.20 0.45 0.73 0.93 1.05 1.00 0.85 0.71 0.62 0.56 0.57 0.58 0.61 0.68 0.75 0.84 0.96 1.23 1.45 1.54 1.62 1.66 1.67 1.68 1.66 1.59 1.51 1.42 1.29 1.11 0.90 0.75 0.60 0.50 0.41 0.34 0.31 0.26 0.23 0.18 0.14 0.12 0.10 0.10
0.02 0.03 0.04 0.06 0.07 0.18 0.43 0.90 1.16 1.32 1.28 1.07 0.86 0.74 0.68 0.66 0.63 0.61 0.63 0.63 0.68 0.72 0.87 1.05 1.17 1.20 1.26 1.29 1.24 1.15 1.13 1.07 1.04 1.01 0.94 0.80 0.66 0.54 0.46 0.41 0.36 0.31 0.26 0.21 0.17 0.15 0.13 0.12 0.11
0.03 0.04 0.05 0.10 0.11 0.16 0.41 1.14 1.59 1.65 1.46 1.15 0.96 0.87 0.85 0.77 0.68 0.62 0.57 0.53 0.55 0.59 0.64 0.72 0.78 0.79 0.84 0.86 0.84 0.84 0.84 0.84 0.82 0.76 0.68 0.55 0.46 0.39 0.33 0.28 0.26 0.25 0.22 0.18 0.15 0.14 0.12 0.10 0.09

GEFSSGP_prec_meanprecacc_096.txt.gz
Total_Precipitation_Accumulation
0.00 0.00 0.00 0.00 0.00 0.00 0.00 0.01 0.02 0.05 0.10 0.08 0.10 0.13 0.17 0.22 0.28 0.59 0.37 0.16 0.08 0.03 0.01 0.01 0.02 0.03 0.05 0.05 0.06 0.07 0.06 0.06 0.08 0.09 0.09 0.10 0.09 0.09 0.08 0.09 0.11 0.16 0.19 0.18 0.16 0.15 0.16 0.13 0.08
0.00 0.00 0.00 0.00 0.00 0.00 0.01 0.02 0.03 0.04 0.09 0.10 0.10 0.12 0.15 0.16 0.12 0.07 0.07 0.07 0.08 0.03 0.01 0.01 0.02 0.03 0.04 0.04 0.06 0.08 0.08 0.07 0.07 0.08 0.08 0.09 0.08 0.08 0.08 0.09 0.12 0.17 0.22 0.22 0.20 0.17 0.15 0.12 0.07
0.00 0.00 0.00 0.00 0.00 0.00 0.02 0.03 0.03 0.03 0.05 0.08 0.14 0.22 0.23 0.16 0.12 0.08 0.07 0.06 0.08 0.03 0.00 0.01 0.02 0.03 0.04 0.04 0.05 0.08 0.09 0.08 0.08 0.08 0.08 0.09 0.09 0.08 0.09 0.10 0.11 0.13 0.17 0.16 0.12 0.10 0.10 0.10 0.06
0.00 0.00 0.00 0.00 0.00 0.00 0.01 0.03 0.04 0.03 0.04 0.06 0.14 0.28 0.26 0.20 0.16 0.12 0.09 0.08 0.06 0.03 0.01 0.01 0.02 0.04 0.05 0.06 0.07 0.08 0.08 0.09 0.09 0.10 0.12 0.12 0.11 0.10 0.12 0.15 0.15 0.14 0.14 0.12 0.10 0.09 0.08 0.09 0.05
0.00 0.00 0.00 0.00 0.00 0.00 0.01 0.02 0.05 0.04 0.05 0.07 0.13 0.28 0.34 0.32 0.32 0.28 0.13 0.10 0.09 0.06 0.03 0.01 0.03 0.05 0.08 0.09 0.11 0.13 0.13 0.13 0.14 0.16 0.17 0.16 0.14 0.14 0.15 0.16 0.17 0.16 0.15 0.13 0.11 0.13 0.11 0.08 0.04
0.00 0.00 0.00 0.00 0.00 0.00 0.01 0.02 0.05 0.06 0.06 0.06 0.12 0.28 0.46 0.39 0.31 0.38 0.26 0.16 0.10 0.08 0.05 0.02 0.02 0.06 0.11 0.14 0.17 0.19 0.16 0.14 0.15 0.17 0.20 0.16 0.13 0.11 0.11 0.12 0.13 0.14 0.17 0.16 0.11 0.07 0.05 0.03 0.02
0.00 0.00 0.00 0.00 0.01 0.01 0.01 0.02 0.04 0.05 0.06 0.08 0.12 0.31 0.52 0.47 0.41 0.44 0.36 0.17 0.13 0.10 0.07 0.04 0.03 0.05 0.13 0.20 0.19 0.17 0.14 0.14 0.16 0.19 0.21 0.18 0.13 0.09 0.09 0.11 0.13 0.13 0.13 0.10 0.05 0.02 0.01 0.01 0.01
0.00 0.00 0.00 0.00 0.01 0.01 0.02 0.03 0.05 0.08 0.10 0.08 0.12 0.30 0.49 0.54 0.50 0.45 0.38 0.25 0.21 0.20 0.11 0.07 0.08 0.09 0.13 0.15 0.15 0.14 0.14 0.14 0.16 0.17 0.16 0.13 0.09 0.08 0.08 0.08 0.08 0.08 0.10 0.09 0.05 0.02 0.01 0.02 0.01
0.00 0.00 0.00 0.00 0.01 0.01 0.03 0.05 0.05 0.05 0.06 0.08 0.10 0.21 0.35 0.42 0.47 0.45 0.40 0.30 0.26 0.19 0.17 0.13 0.11 0.12 0.13 0.11 0.07 0.08 0.10 0.10 0.09 0.07 0.08 0.07 0.08 0.13 0.13 0.08 0.08 0.11 0.12 0.10 0.05 0.03 0.02 0.02 0.02
0.00 0.00 0.00 0.00 0.01 0.01 0.03 0.04 0.05 0.05 0.04 0.06 0.15 0.20 0.23 0.27 0.41 0.41 0.39 0.34 0.27 0.20 0.18 0.18 0.14 0.12 0.14 0.12 0.11 0.11 0.07 0.07 0.05 0.07 0.04 0.07 0.24 0.32 0.24 0.21 0.16 0.14 0.10 0.07 0.05 0.05 0.04 0.03 0.04
0.00 0.00 0.00 0.00 0.00 0.01 0.01 0.02 0.03 0.05 0.05 0.04 0.16 0.36 0.34 0.29 0.41 0.51 0.43 0.43 0.35 0.29 0.21 0.22 0.20 0.19 0.27 0.28 0.21 0.21 0.16 0.14 0.09 0.16 0.14 0.22 0.32 0.27 0.24 0.26 0.18 0.13 0.09 0.08 0.10 0.08 0.06 0.05 0.08
0.00 0.00 0.00 0.00 0.00 0.00 0.01 0.01 0.01 0.02 0.03 0.04 0.10 0.31 0.46 0.40 0.43 0.46 0.49 0.46 0.41 0.41 0.39 0.35 0.28 0.25 0.33 0.40 0.30 0.31 0.26 0.22 0.20 0.29 0.19 0.27 0.36 0.42 0.45 0.53 0.37 0.29 0.25 0.23 0.19 0.16 0.12 0.12 0.13
0.00 0.00 0.00 0.00 0.00 0.00 0.00 0.00 0.00 0.01 0.02 0.03 0.07 0.16 0.32 0.34 0.41 0.46 0.56 0.60 0.56 0.55 0.57 0.54 0.41 0.40 0.43 0.52 0.50 0.45 0.40 0.36 0.38 0.46 0.36 0.35 0.36 0.48 0.66 0.69 0.73 0.51 0.48 0.43 0.38 0.33 0.32 0.27 0.22
0.00 0.00 0.00 0.00 0.00 0.00 0.00 0.00 0.00 0.01 0.01 0.03 0.06 0.11 0.21 0.28 0.40 0.56 0.62 0.66 0.70 0.85 0.83 0.78 0.68 0.62 0.55 0.51 0.55 0.54 0.47 0.51 0.52 0.57 0.53 0.49 0.51 0.68 0.91 0.96 0.93 0.73 0.69 0.72 0.72 0.67 0.53 0.44 0.43
0.00 0.00 0.00 0.00 0.00 0.00 0.00 0.00 0.00 0.00 0.01 0.02 0.05 0.09 0.16 0.29 0.36 0.53 0.61 0.64 0.75 0.89 1.07 1.10 1.02 0.85 0.73 0.62 0.61 0.71 0.67 0.68 0.68 0.79 0.80 0.74 0.79 1.01 1.03 1.21 1.18 0.99 0.95 0.92 0.84 0.87 0.84 0.72 0.65
0.00 0.00 0.00 0.01 0.00 0.00 0.00 0.01 0.00 0.00 0.01 0.02 0.05 0.10 0.11 0.22 0.32 0.40 0.49 0.61 0.94 1.04 1.10 1.16 1.00 0.83 0.83 0.84 0.88 0.91 1.01 1.13 1.13 1.15 1.32 1.35 1.30 1.39 1.35 1.35 1.33 1.24 1.24 1.36 1.35 1.19 1.12 1.07 0.96
0.00 0.00 0.00 0.01 0.00 0.00 0.00 0.01 0.01 0.01 0.01 0.02 0.03 0.07 0.09 0.14 0.26 0.36 0.51 0.66 0.82 0.93 1.11 1.19 1.08 0.94 0.91 1.04 1.27 1.34 1.39 1.61 1.74 1.68 1.89 1.96 1.85 1.83 1.84 1.82 1.82 1.70 1.75 1.69 1.54 1.51 1.37 1.34 1.20
0.00 0.00 0.01 0.01 0.00 0.00 0.00 0.02 0.02 0.02 0.02 0.02 0.03 0.06 0.11 0.16 0.28 0.46 0.57 0.72 0.89 0.99 1.11 1.23 1.27 1.30 1.30 1.35 1.54 1.78 1.91 2.02 2.31 2.36 2.35 2.41 2.48 2.52 2.52 2.42 2.34 2.22 2.08 1.95 1.83 1.74 1.53 1.38 1.20
0.00 0.00 0.00 0.01 0.00 0.00 0.01 0.03 0.04 0.05 0.04 0.06 0.08 0.12 0.18 0.27 0.38 0.58 0.70 0.93 1.14 1.27 1.41 1.45 1.52 1.65 1.80 2.01 2.03 2.14 2.36 2.68 2.96 3.15 3.20 3.20 3.12 3.07 2.87 2.73 2.66 2.45 2.22 2.04 1.91 1.69 1.52 1.34 1.15
0.00 0.00 0.00 0.01 0.01 0.01 0.03 0.06 0.08 0.10 0.11 0.14 0.20 0.21 0.21 0.31 0.43 0.67 0.87 1.20 1.43 1.57 1.67 1.77 1.86 2.14 2.54 2.91 3.31 3.62 3.75 3.76 3.95 4.04 4.03 3.88 3.73 3.54 3.27 3.15 2.94 2.64 2.40 2.16 1.91 1.67 1.52 1.35 1.20
0.00 0.00 0.01 0.01 0.03 0.03 0.05 0.14 0.18 0.18 0.20 0.24 0.27 0.28 0.33 0.45 0.58 0.74 0.95 1.27 1.49 1.63 1.81 1.93 2.19 2.80 3.54 3.86 4.15 4.70 4.96 4.69 4.45 4.30 4.19 4.11 4.09 4.00 3.74 3.57 3.24 2.90 2.54 2.23 1.94 1.68 1.51 1.39 1.26
0.00 0.00 0.00 0.01 0.02 0.06 0.06 0.18 0.27 0.27 0.29 0.27 0.31 0.35 0.41 0.52 0.68 0.82 0.97 1.25 1.55 1.85 1.92 2.09 2.58 3.31 3.94 4.38 4.88 5.38 5.57 5.54 5.40 4.93 4.42 3.97 3.64 3.44 3.30 3.15 2.93 2.63 2.29 2.03 1.77 1.50 1.33 1.30 1.19
0.00 0.00 0.00 0.01 0.01 0.04 0.06 0.18 0.39 0.46 0.48 0.46 0.45 0.44 0.43 0.49 0.68 0.83 0.96 1.17 1.34 1.60 1.98 2.23 2.77 3.43 4.09 4.76 5.37 5.72 5.91 5.85 5.44 4.67 3.91 3.48 3.19 2.89 2.65 2.48 2.30 2.07 1.84 1.62 1.47 1.32 1.17 1.07 0.97
0.00 0.00 0.00 0.01 0.02 0.06 0.06 0.15 0.46 0.73 0.80 0.73 0.63 0.64 0.60 0.49 0.56 0.70 0.88 0.98 1.25 1.50 1.80 2.21 2.52 3.12 3.78 4.34 4.83 4.96 5.08 5.00 4.57 4.10 3.60 3.22 2.78 2.30 1.94 1.73 1.56 1.40 1.23 1.13 1.07 0.99 0.89 0.81 0.72
0.00 0.01 0.03 0.05 0.06 0.10 0.08 0.20 0.56 0.88 0.88 0.72 0.64 0.66 0.64 0.50 0.50 0.72 0.96 0.91 1.13 1.44 1.79 2.16 2.55 2.93 3.42 3.90 4.33 4.54 4.63 4.40 3.92 3.50 3.09 2.63 2.19 1.80 1.48 1.27 1.15 1.07 0.98 0.86 0.81 0.74 0.65 0.56 0.51
0.01 0.01 0.06 0.09 0.10 0.14 0.18 0.39 0.67 0.83 0.79 0.66 0.61 0.57 0.53 0.51 0.53 0.67 0.85 0.92 1.14 1.35 1.65 2.00 2.32 2.64 2.83 3.02 3.30 3.49 3.61 3.44 3.10 2.60 2.15 1.85 1.60 1.37 1.18 1.03 0.92 0.75 0.61 0.56 0.54 0.50 0.44 0.37 0.33
0.01 0.02 0.02 0.03 0.05 0.16 0.39 0.57 0.75 0.77 0.67 0.64 0.60 0.55 0.56 0.55 0.56 0.63 0.76 0.88 1.10 1.39 1.64 1.90 2.04 2.19 2.35 2.44 2.46 2.49 2.57 2.44 2.20 1.93 1.63 1.35 1.10 0.91 0.79 0.68 0.60 0.52 0.45 0.40 0.38 0.36 0.33 0.28 0.25
0.01 0.02 0.03 0.04 0.10 0.20 0.45 0.73 0.93 1.05 1.01 0.85 0.72 0.65 0.58 0.58 0.59 0.62 0.69 0.77 0.87 1.00 1.27 1.49 1.60 1.68 1.73 1.77 1.79 1.80 1.79 1.69 1.58 1.42 1.22 0.99 0.81 0.66 0.55 0.47 0.40 0.38 0.37 0.35 0.30 0.26 0.22 0.20 0.18
0.02 0.03 0.05 0.07 0.08 0.18 0.43 0.90 1.16 1.32 1.28 1.08 0.87 0.76 0.71 0.67 0.63 0.61 0.64 0.65 0.70 0.75 0.90 1.10 1.23 1.25 1.32 1.38 1.34 1.27 1.30 1.24 1.15 1.10 1.02 0.87 0.74 0.61 0.50 0.44 0.41 0.36 0.32 0.27 0.25 0.23 0.20 0.19 0.16
0.03 0.04 0.05 0.11 0.12 0.17 0.41 1.14 1.60 1.65 1.46 1.15 0.97 0.88 0.86 0.78 0.68 0.62 0.58 0.53 0.57 0.62 0.67 0.77 0.86 0.86 0.89 0.92 0.92 0.95 0.96 0.96 0.90 0.83 0.73 0.60 0.51 0.45 0.37 0.31 0.29 0.29 0.27 0.23 0.21 0.20 0.17 0.14 0.12

GEFSSGP_prec_meanprecacc_102.txt.gz
Total_Precipitation_Accumulation
0.00 0.00 0.00 0.00 0.00 0.00 0.00 0.01 0.02 0.05 0.10 0.08 0.10 0.14 0.17 0.22 0.28 0.59 0.37 0.16 0.08 0.03 0.01 0.01 0.02 0.03 0.05 0.06 0.07 0.07 0.07 0.07 0.08 0.09 0.09 0.10 0.09 0.09 0.08 0.09 0.11 0.16 0.20 0.19 0.17 0.16 0.17 0.14 0.09
0.00 0.00 0.00 0.00 0.00 0.00 0.01 0.02 0.03 0.04 0.09 0.10 0.10 0.13 0.15 0.17 0.12 0.07 0.07 0.07 0.08 0.03 0.01 0.01 0.02 0.03 0.04 0.04 0.06 0.08 0.08 0.07 0.07 0.08 0.08 0.09 0.08 0.08 0.08 0.09 0.12 0.18 0.22 0.22 0.20 0.18 0.16 0.13 0.07
0.00 0.00 0.00 0.00 0.00 0.00 0.02 0.03 0.03 0.03 0.05 0.09 0.15 0.22 0.23 0.16 0.12 0.08 0.07 0.06 0.08 0.03 0.00 0.01 0.02 0.03 0.04 0.04 0.05 0.08 0.09 0.08 0.08 0.08 0.08 0.09 0.09 0.08 0.09 0.10 0.11 0.13 0.17 0.17 0.12 0.11 0.11 0.10 0.06
0.00 0.00 0.00 0.00 0.00 0.00 0.01 0.03 0.04 0.03 0.05 0.07 0.15 0.29 0.27 0.20 0.16 0.12 0.09 0.08 0.06 0.03 0.01 0.01 0.02 0.04 0.05 0.06 0.07 0.08 0.08 0.09 0.09 0.10 0.12 0.12 0.12 0.10 0.12 0.15 0.15 0.14 0.14 0.13 0.10 0.09 0.08 0.09 0.05
0.00 0.00 0.00 0.00 0.00 0.00 0.01 0.02 0.05 0.04 0.05 0.07 0.13 0.29 0.34 0.32 0.33 0.29 0.14 0.10 0.09 0.06 0.03 0.01 0.03 0.05 0.08 0.09 0.11 0.13 0.13 0.13 0.14 0.16 0.17 0.16 0.14 0.15 0.15 0.16 0.17 0.16 0.16 0.13 0.12 0.13 0.12 0.08 0.04
0.00 0.00 0.00 0.00 0.00 0.00 0.01 0.02 0.05 0.06 0.06 0.07 0.12 0.29 0.47 0.40 0.31 0.38 0.26 0.16 0.10 0.08 0.05 0.02 0.03 0.06 0.11 0.14 0.17 0.19 0.16 0.14 0.15 0.17 0.20 0.16 0.13 0.12 0.11 0.12 0.13 0.15 0.17 0.17 0.12 0.07 0.06 0.03 0.03
0.00 0.00 0.00 0.00 0.01 0.01 0.01 0.02 0.04 0.05 0.06 0.08 0.13 0.31 0.53 0.49 0.41 0.45 0.36 0.18 0.13 0.10 0.07 0.04 0.03 0.05 0.13 0.20 0.19 0.17 0.15 0.14 0.16 0.19 0.21 0.18 0.13 0.09 0.09 0.11 0.13 0.13 0.14 0.11 0.05 0.02 0.02 0.01 0.01
0.00 0.00 0.00 0.00 0.01 0.01 0.02 0.03 0.05 0.08 0.10 0.08 0.12 0.30 0.50 0.55 0.51 0.45 0.38 0.27 0.23 0.20 0.11 0.07 0.08 0.10 0.13 0.15 0.15 0.15 0.14 0.15 0.16 0.17 0.16 0.13 0.09 0.08 0.08 0.08 0.08 0.09 0.10 0.10 0.06 0.03 0.02 0.02 0.02
0.00 0.00 0.00 0.00 0.01 0.01 0.03 0.05 0.05 0.05 0.06 0.08 0.10 0.22 0.36 0.43 0.47 0.46 0.40 0.31 0.27 0.20 0.17 0.14 0.12 0.13 0.14 0.11 0.08 0.09 0.10 0.11 0.09 0.08 0.09 0.08 0.09 0.14 0.14 0.09 0.08 0.11 0.13 0.10 0.06 0.04 0.03 0.02 0.02
0.00 0.00 0.00 0.00 0.01 0.01 0.03 0.04 0.05 0.05 0.05 0.06 0.15 0.20 0.23 0.28 0.41 0.41 0.40 0.34 0.27 0.21 0.19 0.19 0.16 0.14 0.15 0.14 0.13 0.12 0.08 0.08 0.06 0.08 0.05 0.08 0.26 0.34 0.25 0.22 0.16 0.15 0.12 0.08 0.06 0.06 0.04 0.04 0.04
0.00 0.00 0.00 0.00 0.00 0.01 0.01 0.02 0.03 0.05 0.05 0.05 0.16 0.37 0.35 0.30 0.41 0.52 0.44 0.44 0.37 0.30 0.22 0.23 0.22 0.20 0.29 0.31 0.24 0.25 0.19 0.18 0.12 0.20 0.19 0.27 0.36 0.30 0.27 0.28 0.20 0.15 0.12 0.11 0.13 0.09 0.07 0.07 0.09
0.00 0.00 0.00 0.00 0.00 0.00 0.01 0.01 0.01 0.02 0.03 0.05 0.11 0.32 0.48 0.42 0.43 0.46 0.50 0.47 0.42 0.43 0.41 0.37 0.30 0.27 0.36 0.45 0.35 0.36 0.32 0.28 0.25 0.34 0.24 0.34 0.45 0.49 0.50 0.56 0.41 0.34 0.29 0.27 0.22 0.19 0.14 0.14 0.14
0.00 0.00 0.00 0.00 0.00 0.00 0.00 0.00 0.00 0.01 0.02 0.04 0.08 0.17 0.33 0.35 0.41 0.47 0.57 0.61 0.57 0.56 0.58 0.56 0.43 0.42 0.46 0.56 0.55 0.51 0.47 0.46 0.49 0.58 0.47 0.47 0.47 0.56 0.72 0.73 0.79 0.57 0.53 0.47 0.41 0.36 0.35 0.30 0.24
0.00 0.00 0.00 0.00 0.00 0.00 0.00 0.00 0.00 0.01 0.01 0.03 0.06 0.12 0.21 0.28 0.41 0.57 0.63 0.67 0.71 0.87 0.85 0.80 0.72 0.65 0.59 0.55 0.60 0.59 0.53 0.58 0.63 0.73 0.68 0.63 0.64 0.78 0.99 1.03 1.00 0.79 0.75 0.79 0.77 0.71 0.58 0.48 0.47
0.00 0.00 0.00 0.00 0.00 0.00 0.00 0.00 0.00 0.01 0.01 0.02 0.05 0.09 0.17 0.29 0.37 0.55 0.62 0.66 0.77 0.92 1.13 1.19 1.09 0.89 0.76 0.66 0.66 0.77 0.74 0.75 0.74 0.87 0.90 0.83 0.88 1.12 1.14 1.32 1.26 1.09 1.04 1.01 0.92 0.95 0.92 0.79 0.71
0.00 0.00 0.00 0.01 0.00 0.00 0.00 0.01 0.01 0.01 0.01 0.02 0.05 0.10 0.12 0.23 0.34 0.42 0.51 0.63 0.96 1.06 1.14 1.21 1.05 0.88 0.90 0.92 0.96 0.98 1.12 1.24 1.20 1.22 1.40 1.42 1.40 1.51 1.47 1.47 1.45 1.35 1.34 1.45 1.46 1.29 1.21 1.17 1.05
0.00 0.00 0.00 0.01 0.00 0.00 0.00 0.01 0.01 0.01 0.01 0.02 0.03 0.07 0.09 0.15 0.27 0.37 0.53 0.67 0.84 0.96 1.14 1.22 1.12 0.99 0.99 1.16 1.41 1.43 1.47 1.73 1.83 1.74 1.95 2.03 1.93 1.95 1.98 1.97 1.98 1.84 1.86 1.80 1.66 1.64 1.50 1.47 1.32
0.00 0.00 0.01 0.01 0.00 0.00 0.00 0.02 0.03 0.02 0.02 0.02 0.04 0.07 0.11 0.16 0.29 0.47 0.58 0.73 0.91 1.01 1.13 1.27 1.34 1.36 1.36 1.41 1.60 1.84 1.97 2.10 2.40 2.44 2.43 2.49 2.58 2.62 2.64 2.60 2.54 2.42 2.27 2.10 1.98 1.90 1.69 1.52 1.34
0.00 0.00 0.00 0.01 0.00 0.00 0.01 0.03 0.04 0.05 0.05 0.06 0.08 0.13 0.19 0.28 0.38 0.59 0.70 0.94 1.15 1.29 1.44 1.49 1.58 1.71 1.86 2.06 2.07 2.19 2.41 2.74 3.04 3.26 3.33 3.31 3.24 3.20 3.02 2.90 2.84 2.65 2.43 2.22 2.08 1.89 1.73 1.53 1.34
0.00 0.00 0.00 0.01 0.01 0.01 0.03 0.06 0.08 0.10 0.11 0.14 0.21 0.21 0.21 0.32 0.44 0.68 0.88 1.21 1.44 1.58 1.69 1.80 1.89 2.19 2.59 2.95 3.35 3.66 3.80 3.82 4.03 4.14 4.13 4.00 3.86 3.69 3.45 3.35 3.17 2.89 2.67 2.39 2.11 1.88 1.76 1.59 1.42
0.00 0.00 0.01 0.01 0.03 0.03 0.05 0.14 0.18 0.18 0.21 0.24 0.27 0.28 0.34 0.45 0.59 0.74 0.96 1.28 1.50 1.64 1.83 1.96 2.22 2.83 3.59 3.90 4.19 4.74 4.99 4.73 4.51 4.40 4.32 4.24 4.22 4.14 3.89 3.73 3.42 3.10 2.78 2.47 2.16 1.89 1.74 1.62 1.48
0.00 0.00 0.00 0.01 0.02 0.06 0.06 0.18 0.27 0.27 0.30 0.28 0.31 0.35 0.42 0.53 0.68 0.82 0.98 1.26 1.56 1.86 1.93 2.10 2.59 3.33 3.97 4.41 4.92 5.41 5.60 5.57 5.44 5.00 4.52 4.08 3.75 3.57 3.44 3.30 3.09 2.81 2.49 2.23 2.00 1.74 1.56 1.55 1.41
0.00 0.00 0.00 0.01 0.01 0.04 0.06 0.18 0.39 0.46 0.48 0.46 0.45 0.44 0.44 0.49 0.68 0.83 0.97 1.18 1.35 1.61 1.98 2.24 2.78 3.45 4.11 4.78 5.40 5.76 5.95 5.88 5.48 4.72 3.97 3.55 3.27 2.99 2.77 2.61 2.44 2.24 2.02 1.82 1.67 1.54 1.40 1.30 1.18
0.00 0.00 0.00 0.01 0.02 0.06 0.06 0.15 0.46 0.73 0.80 0.73 0.63 0.65 0.60 0.49 0.56 0.71 0.89 0.99 1.25 1.51 1.80 2.22 2.53 3.15 3.81 4.37 4.86 5.00 5.12 5.04 4.62 4.16 3.65 3.27 2.85 2.38 2.03 1.82 1.66 1.52 1.38 1.31 1.26 1.19 1.12 1.04 0.96
0.00 0.01 0.03 0.05 0.06 0.10 0.08 0.20 0.56 0.88 0.88 0.72 0.64 0.66 0.65 0.51 0.51 0.73 0.97 0.92 1.14 1.45 1.79 2.17 2.56 2.95 3.44 3.93 4.37 4.59 4.67 4.45 3.98 3.56 3.16 2.70 2.27 1.88 1.55 1.34 1.22 1.16 1.10 1.00 0.97 0.92 0.85 0.79 0.76
0.01 0.01 0.06 0.09 0.10 0.14 0.18 0.39 0.67 0.83 0.79 0.66 0.61 0.57 0.53 0.51 0.54 0.68 0.86 0.93 1.14 1.36 1.65 2.00 2.33 2.65 2.85 3.04 3.34 3.54 3.65 3.49 3.15 2.66 2.22 1.93 1.68 1.45 1.25 1.11 1.00 0.86 0.72 0.67 0.67 0.67 0.66 0.63 0.62
0.01 0.02 0.02 0.03 0.05 0.16 0.39 0.57 0.75 0.77 0.67 0.64 0.60 0.55 0.56 0.56 0.57 0.64 0.77 0.88 1.11 1.40 1.65 1.91 2.05 2.20 2.36 2.46 2.50 2.54 2.62 2.49 2.26 2.00 1.72 1.44 1.18 0.99 0.86 0.74 0.66 0.61 0.53 0.49 0.47 0.50 0.52 0.52 0.53
0.01 0.02 0.03 0.04 0.10 0.21 0.45 0.74 0.94 1.05 1.01 0.85 0.72 0.65 0.59 0.59 0.60 0.62 0.69 0.77 0.88 1.02 1.29 1.50 1.62 1.69 1.75 1.79 1.82 1.84 1.83 1.74 1.64 1.49 1.30 1.08 0.91 0.74 0.62 0.51 0.44 0.43 0.44 0.45 0.39 0.37 0.37 0.37 0.37
0.02 0.03 0.05 0.07 0.08 0.18 0.43 0.91 1.16 1.32 1.28 1.08 0.87 0.76 0.71 0.68 0.64 0.62 0.65 0.65 0.71 0.76 0.92 1.11 1.25 1.28 1.35 1.41 1.37 1.30 1.35 1.29 1.21 1.17 1.09 0.95 0.82 0.68 0.58 0.50 0.45 0.41 0.37 0.36 0.35 0.33 0.33 0.33 0.31
0.03 0.04 0.06 0.12 0.13 0.17 0.42 1.15 1.60 1.65 1.46 1.15 0.97 0.88 0.86 0.79 0.69 0.63 0.59 0.54 0.57 0.63 0.69 0.79 0.89 0.89 0.93 0.96 0.96 0.99 1.02 1.04 0.99 0.90 0.81 0.67 0.58 0.52 0.45 0.37 0.35 0.35 0.34 0.30 0.29 0.27 0.24 0.22 0.21

GEFSSGP_prec_meanprecacc_108.txt.gz
Total_Precipitation_Accumulation
0.00 0.00 0.00 0.00 0.00 0.00 0.00 0.01 0.02 0.05 0.10 0.08 0.10 0.14 0.18 0.24 0.30 0.66 0.39 0.16 0.08 0.03 0.01 0.01 0.02 0.03 0.05 0.06 0.07 0.07 0.07 0.07 0.08 0.09 0.09 0.10 0.09 0.09 0.09 0.09 0.11 0.17 0.20 0.19 0.17 0.17 0.18 0.15 0.10
0.00 0.00 0.00 0.00 0.00 0.00 0.01 0.02 0.03 0.04 0.09 0.10 0.10 0.13 0.16 0.18 0.13 0.07 0.07 0.07 0.08 0.03 0.01 0.01 0.02 0.03 0.04 0.04 0.06 0.08 0.09 0.07 0.07 0.08 0.08 0.09 0.08 0.08 0.08 0.09 0.12 0.18 0.23 0.23 0.21 0.19 0.17 0.13 0.08
0.00 0.00 0.00 0.00 0.00 0.00 0.02 0.03 0.03 0.03 0.05 0.09 0.15 0.23 0.23 0.19 0.15 0.08 0.07 0.06 0.08 0.03 0.00 0.01 0.02 0.03 0.04 0.04 0.05 0.08 0.09 0.08 0.08 0.08 0.08 0.09 0.09 0.08 0.09 0.11 0.11 0.14 0.18 0.18 0.13 0.12 0.12 0.11 0.07
0.00 0.00 0.00 0.00 0.00 0.00 0.01 0.03 0.04 0.03 0.05 0.07 0.15 0.30 0.27 0.21 0.17 0.12 0.09 0.08 0.06 0.03 0.01 0.01 0.02 0.04 0.05 0.06 0.07 0.08 0.08 0.09 0.10 0.11 0.12 0.13 0.12 0.11 0.12 0.15 0.16 0.15 0.15 0.14 0.11 0.10 0.09 0.10 0.05
0.00 0.00 0.00 0.00 0.00 0.00 0.01 0.02 0.05 0.04 0.05 0.07 0.13 0.30 0.37 0.34 0.34 0.29 0.14 0.10 0.09 0.06 0.03 0.01 0.03 0.05 0.08 0.09 0.11 0.13 0.14 0.14 0.14 0.16 0.18 0.16 0.14 0.15 0.15 0.17 0.18 0.17 0.16 0.14 0.12 0.14 0.12 0.08 0.04
0.00 0.00 0.00 0.00 0.00 0.00 0.01 0.02 0.05 0.06 0.06 0.07 0.13 0.33 0.54 0.46 0.34 0.38 0.26 0.16 0.10 0.08 0.05 0.02 0.03 0.06 0.11 0.15 0.17 0.19 0.16 0.15 0.15 0.18 0.20 0.17 0.13 0.12 0.12 0.13 0.14 0.16 0.18 0.17 0.12 0.08 0.06 0.04 0.03
0.00 0.00 0.00 0.00 0.01 0.01 0.01 0.02 0.04 0.06 0.06 0.10 0.16 0.37 0.66 0.63 0.49 0.46 0.36 0.18 0.14 0.11 0.07 0.04 0.03 0.05 0.13 0.20 0.19 0.17 0.15 0.15 0.17 0.20 0.22 0.19 0.14 0.10 0.09 0.12 0.14 0.14 0.14 0.12 0.06 0.03 0.02 0.01 0.02
0.00 0.00 0.00 0.00 0.01 0.01 0.02 0.03 0.05 0.08 0.11 0.19 0.18 0.36 0.64 0.72 0.61 0.48 0.39 0.28 0.23 0.20 0.11 0.07 0.08 0.10 0.13 0.15 0.15 0.15 0.14 0.15 0.16 0.18 0.17 0.14 0.10 0.09 0.09 0.09 0.09 0.10 0.11 0.11 0.07 0.03 0.02 0.02 0.02
0.00 0.00 0.00 0.00 0.01 0.01 0.03 0.05 0.05 0.05 0.09 0.16 0.14 0.32 0.53 0.57 0.54 0.49 0.41 0.32 0.28 0.20 0.18 0.15 0.13 0.13 0.14 0.12 0.08 0.09 0.10 0.11 0.10 0.08 0.10 0.09 0.10 0.16 0.15 0.10 0.10 0.12 0.14 0.11 0.06 0.05 0.03 0.03 0.02
0.00 0.00 0.00 0.00 0.01 0.01 0.03 0.04 0.05 0.05 0.06 0.09 0.18 0.27 0.35 0.40 0.47 0.45 0.43 0.38 0.31 0.28 0.23 0.21 0.18 0.16 0.16 0.14 0.14 0.13 0.09 0.09 0.06 0.10 0.08 0.11 0.31 0.41 0.32 0.28 0.20 0.17 0.13 0.09 0.07 0.06 0.05 0.04 0.06
0.00 0.00 0.00 0.00 0.00 0.01 0.01 0.02 0.04 0.06 0.09 0.08 0.21 0.47 0.47 0.43 0.50 0.58 0.50 0.49 0.45 0.40 0.28 0.26 0.28 0.26 0.32 0.34 0.27 0.28 0.23 0.23 0.17 0.27 0.29 0.36 0.50 0.44 0.41 0.42 0.27 0.19 0.14 0.14 0.16 0.11 0.08 0.08 0.11
0.00 0.00 0.00 0.00 0.00 0.00 0.01 0.01 0.02 0.06 0.09 0.09 0.19 0.45 0.66 0.57 0.55 0.51 0.54 0.51 0.51 0.51 0.45 0.39 0.33 0.30 0.41 0.51 0.43 0.45 0.41 0.38 0.35 0.44 0.35 0.45 0.59 0.64 0.64 0.73 0.56 0.47 0.38 0.35 0.31 0.26 0.19 0.17 0.17
0.00 0.00 0.00 0.00 0.00 0.00 0.00 0.01 0.02 0.03 0.04 0.08 0.18 0.32 0.48 0.46 0.51 0.55 0.65 0.69 0.64 0.64 0.63 0.59 0.47 0.46 0.51 0.63 0.65 0.64 0.61 0.61 0.68 0.73 0.60 0.60 0.60 0.71 0.88 0.90 1.01 0.78 0.73 0.66 0.57 0.49 0.47 0.39 0.30
0.00 0.00 0.00 0.00 0.00 0.00 0.01 0.01 0.01 0.01 0.02 0.06 0.12 0.16 0.31 0.44 0.53 0.69 0.77 0.92 0.96 1.05 0.94 0.86 0.77 0.70 0.65 0.61 0.68 0.67 0.63 0.70 0.78 0.89 0.84 0.76 0.76 0.91 1.13 1.18 1.18 1.01 1.00 1.06 1.03 0.92 0.75 0.62 0.60
0.00 0.00 0.00 0.00 0.00 0.00 0.00 0.00 0.00 0.01 0.02 0.03 0.08 0.15 0.28 0.51 0.56 0.83 0.98 1.01 1.21 1.20 1.28 1.27 1.14 0.94 0.81 0.72 0.71 0.83 0.82 0.86 0.89 1.04 1.13 1.04 1.02 1.25 1.29 1.47 1.41 1.24 1.21 1.21 1.16 1.20 1.13 0.97 0.88
0.00 0.00 0.00 0.01 0.00 0.00 0.00 0.01 0.01 0.02 0.02 0.03 0.07 0.15 0.26 0.44 0.49 0.63 0.89 0.98 1.35 1.38 1.28 1.30 1.11 0.93 0.96 0.99 1.02 1.05 1.20 1.36 1.33 1.36 1.55 1.60 1.56 1.64 1.60 1.59 1.57 1.49 1.51 1.67 1.66 1.51 1.45 1.40 1.25
0.00 0.00 0.00 0.01 0.00 0.00 0.00 0.02 0.02 0.01 0.01 0.03 0.05 0.16 0.32 0.30 0.35 0.46 0.71 0.85 1.02 1.11 1.25 1.32 1.24 1.06 1.04 1.22 1.47 1.50 1.57 1.88 2.01 1.91 2.13 2.21 2.08 2.07 2.13 2.12 2.15 2.02 2.05 2.01 1.86 1.85 1.72 1.69 1.52
0.00 0.00 0.01 0.01 0.00 0.00 0.00 0.02 0.04 0.04 0.02 0.03 0.05 0.11 0.24 0.25 0.34 0.53 0.63 0.77 0.96 1.06 1.19 1.36 1.46 1.43 1.41 1.47 1.66 1.91 2.05 2.20 2.54 2.57 2.58 2.66 2.76 2.77 2.80 2.75 2.73 2.62 2.46 2.31 2.22 2.15 1.92 1.74 1.52
0.00 0.00 0.00 0.01 0.01 0.00 0.01 0.03 0.05 0.06 0.05 0.06 0.10 0.16 0.23 0.32 0.43 0.64 0.78 0.97 1.17 1.31 1.47 1.53 1.62 1.75 1.90 2.11 2.12 2.25 2.48 2.82 3.12 3.33 3.41 3.42 3.37 3.36 3.18 3.06 3.04 2.87 2.64 2.43 2.32 2.17 2.03 1.77 1.55
0.00 0.00 0.00 0.01 0.01 0.01 0.03 0.07 0.09 0.10 0.11 0.15 0.22 0.22 0.22 0.32 0.45 0.73 0.93 1.22 1.46 1.60 1.71 1.82 1.91 2.21 2.63 2.99 3.39 3.72 3.89 3.90 4.10 4.21 4.20 4.07 3.94 3.79 3.56 3.48 3.31 3.05 2.85 2.61 2.37 2.17 2.11 1.91 1.70
0.00 0.00 0.01 0.01 0.03 0.03 0.05 0.15 0.19 0.18 0.21 0.24 0.27 0.28 0.34 0.45 0.59 0.74 0.96 1.28 1.50 1.65 1.84 1.97 2.24 2.85 3.61 3.93 4.21 4.77 5.05 4.79 4.58 4.46 4.37 4.28 4.27 4.20 3.96 3.83 3.54 3.25 2.94 2.66 2.39 2.16 2.02 1.91 1.76
0.00 0.00 0.01 0.01 0.02 0.06 0.07 0.20 0.31 0.31 0.32 0.29 0.32 0.35 0.42 0.53 0.68 0.82 0.98 1.26 1.56 1.86 1.94 2.11 2.61 3.35 4.00 4.44 4.94 5.44 5.64 5.62 5.49 5.06 4.58 4.13 3.80 3.62 3.50 3.37 3.17 2.94 2.63 2.39 2.17 1.94 1.81 1.83 1.68
0.00 0.00 0.00 0.01 0.02 0.05 0.07 0.20 0.43 0.50 0.55 0.53 0.49 0.45 0.44 0.49 0.69 0.83 0.97 1.18 1.35 1.62 1.99 2.25 2.79 3.47 4.13 4.80 5.42 5.79 5.98 5.93 5.54 4.78 4.03 3.61 3.32 3.03 2.80 2.65 2.51 2.33 2.14 1.96 1.83 1.74 1.61 1.54 1.43
0.00 0.00 0.00 0.01 0.03 0.06 0.07 0.17 0.50 0.79 0.88 0.88 0.74 0.67 0.60 0.50 0.56 0.71 0.89 0.99 1.26 1.52 1.81 2.23 2.54 3.16 3.83 4.39 4.89 5.04 5.17 5.09 4.67 4.21 3.70 3.33 2.92 2.44 2.08 1.87 1.71 1.59 1.47 1.43 1.42 1.36 1.31 1.25 1.20
0.00 0.01 0.05 0.09 0.11 0.12 0.10 0.21 0.59 0.91 0.91 0.82 0.74 0.68 0.65 0.51 0.51 0.73 0.97 0.92 1.14 1.46 1.80 2.18 2.57 2.96 3.46 3.95 4.40 4.62 4.72 4.50 4.04 3.62 3.22 2.78 2.35 1.95 1.61 1.41 1.30 1.24 1.17 1.08 1.08 1.05 1.03 1.01 1.01
0.01 0.02 0.09 0.15 0.18 0.22 0.24 0.42 0.71 0.84 0.80 0.68 0.62 0.57 0.53 0.51 0.54 0.68 0.86 0.93 1.15 1.37 1.66 2.01 2.35 2.67 2.87 3.06 3.37 3.58 3.72 3.55 3.21 2.73 2.29 2.00 1.75 1.51 1.32 1.18 1.08 0.94 0.81 0.77 0.77 0.78 0.78 0.79 0.85
0.01 0.02 0.03 0.06 0.08 0.20 0.45 0.63 0.82 0.80 0.68 0.65 0.61 0.55 0.56 0.56 0.57 0.64 0.77 0.89 1.12 1.40 1.66 1.92 2.06 2.21 2.38 2.48 2.53 2.58 2.68 2.56 2.32 2.04 1.76 1.49 1.24 1.05 0.93 0.82 0.74 0.69 0.62 0.58 0.57 0.59 0.62 0.65 0.71
0.01 0.02 0.03 0.05 0.12 0.25 0.51 0.83 1.05 1.13 1.05 0.87 0.73 0.66 0.60 0.62 0.61 0.63 0.70 0.77 0.88 1.02 1.29 1.51 1.63 1.71 1.77 1.82 1.86 1.87 1.88 1.79 1.69 1.54 1.34 1.12 0.95 0.81 0.69 0.58 0.51 0.50 0.50 0.49 0.45 0.45 0.48 0.51 0.56
0.02 0.03 0.05 0.07 0.08 0.21 0.50 1.02 1.27 1.44 1.41 1.14 0.88 0.77 0.72 0.71 0.65 0.62 0.65 0.65 0.71 0.76 0.92 1.12 1.27 1.30 1.37 1.44 1.40 1.34 1.39 1.34 1.26 1.21 1.13 0.98 0.86 0.75 0.65 0.57 0.53 0.49 0.45 0.42 0.41 0.40 0.43 0.48 0.49
0.03 0.04 0.06 0.14 0.15 0.18 0.48 1.25 1.64 1.74 1.56 1.20 0.99 0.89 0.87 0.79 0.69 0.63 0.59 0.54 0.58 0.63 0.69 0.79 0.90 0.91 0.95 0.99 0.99 1.04 1.07 1.07 1.02 0.93 0.84 0.70 0.61 0.57 0.53 0.47 0.46 0.45 0.41 0.39 0.37 0.35 0.33 0.32 0.34